• In Spain
  • List of Countries
  • For 7 days
  • Water Temperature
  • Satellite Maps
  • Weather Map
  • Weather Widgets
  • user-avatar
    Login

    Hourly Weather Sesimbra

    Today, 25 November, Saturday

    Time Temperature Precipitation Wind Pressure Humidity
    00:00 +15°C° 0 mm 2 mps 754 mmHg 71%
    01:00 +15°C° 0 mm 2 mps 754 mmHg 71%
    02:00 +15°C° 0 mm 1 mps 754 mmHg 72%
    03:00 +15°C° 0 mm 2 mps 754 mmHg 72%
    04:00 +15°C° 0 mm 2 mps 754 mmHg 72%
    05:00 +15°C° 0 mm 2 mps 754 mmHg 73%
    06:00 +16°C° 0 mm 2 mps 755 mmHg 73%
    07:00 +16°C° 0 mm 1 mps 755 mmHg 73%
    08:00 +16°C° 0 mm 1 mps 755 mmHg 73%
    09:00 +18°C° 0.1 mm 1 mps 756 mmHg 73%
    10:00 +19°C° 0.1 mm 1 mps 756 mmHg 73%
    11:00 +20°C° 0.1 mm 1 mps 756 mmHg 73%
    12:00 +20°C° 0 mm 1 mps 756 mmHg 73%
    13:00 +20°C° 0 mm 1 mps 756 mmHg 72%
    14:00 +21°C° 0 mm 1 mps 756 mmHg 71%
    15:00 +20°C° 0 mm 1 mps 756 mmHg 75%
    16:00 +19°C° 0 mm 1 mps 756 mmHg 80%
    17:00 +18°C° 0 mm 1 mps 756 mmHg 84%
    18:00 +18°C° 0 mm 1 mps 756 mmHg 86%
    19:00 +16°C° 0 mm 1 mps 757 mmHg 88%
    20:00 +16°C° 0 mm 1 mps 757 mmHg 90%
    21:00 +15°C° 0 mm 1 mps 757 mmHg 90%
    22:00 +15°C° 0 mm 1 mps 758 mmHg 89%
    23:00 +15°C° 0 mm 1 mps 758 mmHg 89%

    Tomorrow, 26 November, Sunday

    Time Temperature Precipitation Wind Pressure Humidity
    00:00 +15°C° 0 mm 1 mps 758 mmHg 89%
    01:00 +15°C° 0 mm 2 mps 758 mmHg 89%
    02:00 +15°C° 0 mm 2 mps 758 mmHg 90%
    03:00 +15°C° 0 mm 2 mps 758 mmHg 89%
    04:00 +15°C° 0 mm 2 mps 758 mmHg 89%
    05:00 +13°C° 0 mm 3 mps 758 mmHg 88%
    06:00 +14°C° 0 mm 3 mps 759 mmHg 85%
    07:00 +14°C° 0 mm 3 mps 759 mmHg 83%
    08:00 +14°C° 0 mm 3 mps 759 mmHg 80%
    09:00 +17°C° 0 mm 3 mps 760 mmHg 74%
    10:00 +18°C° 0 mm 3 mps 760 mmHg 68%
    11:00 +19°C° 0 mm 3 mps 760 mmHg 62%
    12:00 +20°C° 0 mm 3 mps 760 mmHg 59%
    13:00 +20°C° 0 mm 3 mps 759 mmHg 57%
    14:00 +21°C° 0 mm 3 mps 759 mmHg 54%
    15:00 +20°C° 0 mm 3 mps 759 mmHg 57%
    16:00 +18°C° 0 mm 2 mps 759 mmHg 60%
    17:00 +17°C° 0 mm 2 mps 759 mmHg 63%
    18:00 +17°C° 0 mm 2 mps 759 mmHg 61%
    19:00 +16°C° 0 mm 3 mps 760 mmHg 59%
    20:00 +16°C° 0 mm 3 mps 760 mmHg 57%
    21:00 +14°C° 0 mm 3 mps 760 mmHg 56%
    22:00 +14°C° 0 mm 4 mps 760 mmHg 55%
    23:00 +14°C° 0 mm 4 mps 760 mmHg 54%

    Day after tomorrow, 27 November, Monday

    Time Temperature Precipitation Wind Pressure Humidity
    00:00 +14°C° 0 mm 4 mps 759 mmHg 54%
    01:00 +13°C° 0 mm 4 mps 759 mmHg 54%
    02:00 +13°C° 0 mm 3 mps 759 mmHg 54%
    03:00 +13°C° 0.2 mm 4 mps 759 mmHg 57%
    04:00 +13°C° 0.2 mm 4 mps 759 mmHg 60%
    05:00 +12°C° 0.2 mm 4 mps 759 mmHg 63%
    06:00 +13°C° 0 mm 4 mps 759 mmHg 63%
    07:00 +13°C° 0 mm 4 mps 759 mmHg 64%
    08:00 +13°C° 0 mm 4 mps 759 mmHg 64%
    09:00 +14°C° 0.1 mm 4 mps 759 mmHg 63%
    10:00 +17°C° 0.1 mm 4 mps 759 mmHg 61%
    11:00 +18°C° 0.1 mm 4 mps 759 mmHg 59%
    12:00 +18°C° 0 mm 3 mps 759 mmHg 60%
    13:00 +19°C° 0 mm 3 mps 758 mmHg 62%
    14:00 +19°C° 0 mm 3 mps 758 mmHg 63%
    15:00 +18°C° 0 mm 3 mps 757 mmHg 65%
    16:00 +17°C° 0 mm 3 mps 757 mmHg 67%
    17:00 +17°C° 0 mm 3 mps 757 mmHg 70%
    18:00 +16°C° 0.1 mm 3 mps 757 mmHg 70%
    19:00 +16°C° 0.1 mm 3 mps 757 mmHg 70%
    20:00 +16°C° 0.1 mm 3 mps 757 mmHg 70%
    21:00 +16°C° 0 mm 3 mps 757 mmHg 70%
    22:00 +16°C° 0 mm 3 mps 756 mmHg 70%
    23:00 +16°C° 0 mm 3 mps 756 mmHg 70%

    28 November, Tuesday

    Time Temperature Precipitation Wind Pressure Humidity
    00:00 +15°C° 0 mm 4 mps 756 mmHg 71%
    01:00 +14°C° 0 mm 4 mps 755 mmHg 71%
    02:00 +14°C° 0 mm 4 mps 754 mmHg 72%
    03:00 +14°C° 0.1 mm 4 mps 754 mmHg 74%
    04:00 +14°C° 0.1 mm 5 mps 754 mmHg 77%
    05:00 +14°C° 0.1 mm 5 mps 753 mmHg 80%
    06:00 +14°C° 0.3 mm 5 mps 753 mmHg 80%
    07:00 +15°C° 0.3 mm 5 mps 753 mmHg 80%
    08:00 +15°C° 0.3 mm 5 mps 752 mmHg 80%
    09:00 +16°C° 0.7 mm 5 mps 752 mmHg 79%
    10:00 +17°C° 0.7 mm 6 mps 752 mmHg 77%
    11:00 +17°C° 0.7 mm 6 mps 751 mmHg 76%
    12:00 +17°C° 1.4 mm 6 mps 750 mmHg 78%
    13:00 +17°C° 1.4 mm 5 mps 750 mmHg 81%
    14:00 +17°C° 1.4 mm 5 mps 749 mmHg 84%
    15:00 +17°C° 0.9 mm 5 mps 748 mmHg 86%
    16:00 +18°C° 0.9 mm 4 mps 748 mmHg 89%
    17:00 +17°C° 0.9 mm 4 mps 748 mmHg 92%
    18:00 +17°C° 0.4 mm 4 mps 747 mmHg 92%
    19:00 +17°C° 0.4 mm 4 mps 747 mmHg 93%
    20:00 +17°C° 0.4 mm 4 mps 747 mmHg 93%
    21:00 +17°C° 1 mm 4 mps 746 mmHg 93%
    22:00 +17°C° 1 mm 4 mps 746 mmHg 92%
    23:00 +17°C° 1 mm 4 mps 746 mmHg 91%

    29 November, Wednesday

    Time Temperature Precipitation Wind Pressure Humidity
    00:00 +16°C° 0.4 mm 5 mps 745 mmHg 92%
    01:00 +16°C° 0.4 mm 5 mps 745 mmHg 92%
    02:00 +15°C° 0.4 mm 5 mps 744 mmHg 92%
    03:00 +15°C° 0.3 mm 5 mps 744 mmHg 93%
    04:00 +15°C° 0.3 mm 5 mps 744 mmHg 94%
    05:00 +15°C° 0.3 mm 5 mps 743 mmHg 95%
    06:00 +15°C° 0.1 mm 5 mps 744 mmHg 93%
    07:00 +15°C° 0.1 mm 6 mps 744 mmHg 91%
    08:00 +15°C° 0.1 mm 6 mps 744 mmHg 89%
    09:00 +15°C° 0 mm 6 mps 745 mmHg 85%
    10:00 +16°C° 0 mm 6 mps 745 mmHg 80%
    11:00 +16°C° 0 mm 6 mps 745 mmHg 75%
    12:00 +16°C° 0 mm 6 mps 745 mmHg 72%
    13:00 +16°C° 0 mm 6 mps 745 mmHg 68%
    14:00 +16°C° 0 mm 6 mps 745 mmHg 65%
    15:00 +15°C° 0 mm 6 mps 745 mmHg 67%
    16:00 +14°C° 0 mm 6 mps 746 mmHg 70%
    17:00 +13°C° 0 mm 6 mps 746 mmHg 73%
    18:00 +11°C° 0 mm 6 mps 747 mmHg 72%
    19:00 +12°C° 0 mm 5 mps 747 mmHg 71%
    20:00 +10°C° 0 mm 5 mps 748 mmHg 71%
    21:00 +10°C° 0 mm 5 mps 748 mmHg 71%
    22:00 +9°C° 0 mm 5 mps 748 mmHg 72%
    23:00 +9°C° 0 mm 5 mps 748 mmHg 72%

    30 November, Thursday

    Time Temperature Precipitation Wind Pressure Humidity
    00:00 +8°C° 0 mm 5 mps 749 mmHg 72%
    01:00 +8°C° 0 mm 5 mps 749 mmHg 71%
    02:00 +7°C° 0 mm 4 mps 749 mmHg 70%
    03:00 +7°C° 0 mm 4 mps 749 mmHg 70%
    04:00 +6°C° 0 mm 4 mps 750 mmHg 70%
    05:00 +6°C° 0 mm 5 mps 750 mmHg 70%
    06:00 +6°C° 0 mm 5 mps 751 mmHg 67%
    07:00 +7°C° 0 mm 5 mps 751 mmHg 64%
    08:00 +7°C° 0 mm 5 mps 752 mmHg 61%
    09:00 +10°C° 0 mm 4 mps 752 mmHg 54%
    10:00 +12°C° 0 mm 4 mps 753 mmHg 47%
    11:00 +13°C° 0 mm 4 mps 753 mmHg 40%
    12:00 +14°C° 0 mm 4 mps 753 mmHg 37%
    13:00 +14°C° 0 mm 4 mps 753 mmHg 33%
    14:00 +14°C° 0 mm 4 mps 753 mmHg 30%
    15:00 +13°C° 0 mm 4 mps 754 mmHg 33%
    16:00 +11°C° 0 mm 4 mps 754 mmHg 36%
    17:00 +10°C° 0 mm 4 mps 755 mmHg 40%
    18:00 +8°C° 0 mm 4 mps 755 mmHg 43%
    19:00 +8°C° 0 mm 4 mps 756 mmHg 47%
    20:00 +7°C° 0 mm 4 mps 756 mmHg 51%
    21:00 +6°C° 0 mm 4 mps 756 mmHg 53%
    22:00 +7°C° 0 mm 3 mps 756 mmHg 55%
    23:00 +7°C° 0 mm 3 mps 757 mmHg 57%
    Show more